{"data":{"norad_id":59399,"intl_designator":"2024-064B","name":"STARLINK-31544","alt_names":[],"object_type":"PAYLOAD","status":"ACTIVE","operator":null,"country":"US","launch_date":"2024-04-05","launch_site_code":"AFETR","launch_vehicle":null,"mission":null,"orbit_class":"UNKNOWN","rcs_meters":null,"size_class":null,"mass_kg":null,"dimensions":null,"purposes":["comms"],"wikipedia_slug":null,"has_3d_model":false,"image_url":null,"decayed_at":null,"tle_current":{"epoch":"2026-09-21T15:53:13.280928Z","epoch_age_seconds":65232,"freshness":"FRESH","line1":"1 59399U 24064B   26264.66195927  .00000066  00000+0  11922-4 0  9996","line2":"2 59399  43.0041  29.7350 0001176 273.4019  86.6698 15.27578981139195","mean_motion":15.27578981,"eccentricity":0.0001176,"inclination_deg":43.0041,"raan_deg":29.735,"arg_perigee_deg":273.4019,"mean_anomaly_deg":86.6698,"bstar":1.1922e-5,"rev_number":13919,"period_min":94.266811596041,"perigee_km":482.24527145021,"apogee_km":483.85902313765,"semimajor_km":6861.1891472939,"source":"CELESTRAK","updated_at":"2026-09-22T09:00:48.912931Z"}}}